Year,Month,Day,Hour,Minute,Value (Times are PST for temperature in C)
2013,07,01,00,00,20.70
2013,07,01,00,01,20.70
2013,07,01,00,02,20.60
2013,07,01,00,03,20.60
2013,07,01,00,04,20.60
2013,07,01,00,05,20.60
2013,07,01,00,06,20.60
2013,07,01,00,07,20.60
2013,07,01,00,08,20.60
2013,07,01,00,09,20.60
2013,07,01,00,10,20.60
2013,07,01,00,11,20.60
2013,07,01,00,12,20.60
2013,07,01,00,13,20.50
2013,07,01,00,14,20.50
2013,07,01,00,15,20.50
2013,07,01,00,16,20.50
2013,07,01,00,17,20.40
2013,07,01,00,18,20.40
2013,07,01,00,19,20.40
2013,07,01,00,20,20.40
2013,07,01,00,21,20.40
2013,07,01,00,22,20.40
2013,07,01,00,23,20.40
2013,07,01,00,24,20.40
2013,07,01,00,25,20.40
2013,07,01,00,26,20.40
2013,07,01,00,27,20.40
2013,07,01,00,28,20.40
2013,07,01,00,29,20.40
2013,07,01,00,30,20.40
2013,07,01,00,31,20.40
2013,07,01,00,32,20.40
2013,07,01,00,33,20.40
2013,07,01,00,34,20.40
2013,07,01,00,35,20.30
2013,07,01,00,36,20.30
2013,07,01,00,37,20.30
2013,07,01,00,38,20.30
2013,07,01,00,39,20.20
2013,07,01,00,40,20.20
2013,07,01,00,41,20.20
2013,07,01,00,42,20.20
2013,07,01,00,43,20.10
2013,07,01,00,44,20.10
2013,07,01,00,45,20.00
2013,07,01,00,46,19.90
2013,07,01,00,47,19.80
2013,07,01,00,48,19.80
2013,07,01,00,49,19.70
2013,07,01,00,50,19.60
2013,07,01,00,51,19.60
2013,07,01,00,52,19.50
2013,07,01,00,53,19.40
2013,07,01,00,54,19.40
2013,07,01,00,55,19.40
2013,07,01,00,56,19.30
2013,07,01,00,57,19.30
2013,07,01,00,58,19.30
2013,07,01,00,59,19.20
2013,07,01,01,00,19.20
2013,07,01,01,01,19.20
2013,07,01,01,02,19.10
2013,07,01,01,03,19.10
2013,07,01,01,04,19.10
2013,07,01,01,05,19.00
2013,07,01,01,06,19.00
2013,07,01,01,07,19.00
2013,07,01,01,08,19.00
2013,07,01,01,09,18.90
2013,07,01,01,10,18.90
2013,07,01,01,11,18.90
2013,07,01,01,12,18.80
2013,07,01,01,13,18.80
2013,07,01,01,14,18.70
2013,07,01,01,15,18.70
2013,07,01,01,16,18.60
2013,07,01,01,17,18.50
2013,07,01,01,18,18.40
2013,07,01,01,19,18.30
2013,07,01,01,20,18.20
2013,07,01,01,21,18.20
2013,07,01,01,22,18.10
2013,07,01,01,23,18.10
2013,07,01,01,24,18.10
2013,07,01,01,25,18.00
2013,07,01,01,26,18.00
2013,07,01,01,27,18.00
2013,07,01,01,28,17.90
2013,07,01,01,29,17.90
2013,07,01,01,30,17.90
2013,07,01,01,31,17.90
2013,07,01,01,32,17.90
2013,07,01,01,33,17.90
2013,07,01,01,34,18.00
2013,07,01,01,35,17.90
2013,07,01,01,36,17.90
2013,07,01,01,37,18.00
2013,07,01,01,38,17.90
2013,07,01,01,39,17.90
2013,07,01,01,40,18.00
2013,07,01,01,41,18.00
2013,07,01,01,42,18.00
2013,07,01,01,43,18.00
2013,07,01,01,44,18.00
2013,07,01,01,45,18.00
2013,07,01,01,46,18.10
2013,07,01,01,47,18.10
2013,07,01,01,48,18.10
2013,07,01,01,49,18.10
2013,07,01,01,50,18.10
2013,07,01,01,51,18.10
2013,07,01,01,52,18.10
2013,07,01,01,53,18.10
2013,07,01,01,54,18.10
2013,07,01,01,55,18.20
2013,07,01,01,56,18.20
2013,07,01,01,57,18.20
2013,07,01,01,58,18.20
2013,07,01,01,59,18.30
2013,07,01,02,00,18.30
2013,07,01,02,01,18.30
2013,07,01,02,02,18.40
2013,07,01,02,03,18.40
2013,07,01,02,04,18.40
2013,07,01,02,05,18.40
2013,07,01,02,06,18.50
2013,07,01,02,07,18.50
2013,07,01,02,08,18.60
2013,07,01,02,09,18.60
2013,07,01,02,10,18.70
2013,07,01,02,11,18.70
2013,07,01,02,12,18.70
2013,07,01,02,13,18.70
2013,07,01,02,14,18.70
2013,07,01,02,15,18.70
2013,07,01,02,16,18.70
2013,07,01,02,17,18.70
2013,07,01,02,18,18.70
2013,07,01,02,19,18.70
2013,07,01,02,20,18.70
2013,07,01,02,21,18.70
2013,07,01,02,22,18.70
2013,07,01,02,23,18.70
2013,07,01,02,24,18.70
2013,07,01,02,25,18.70
2013,07,01,02,26,18.70
2013,07,01,02,27,18.70
2013,07,01,02,28,18.80
2013,07,01,02,29,18.80
2013,07,01,02,30,18.80
2013,07,01,02,31,18.80
2013,07,01,02,32,18.80
2013,07,01,02,33,18.90
2013,07,01,02,34,18.90
2013,07,01,02,35,18.90
2013,07,01,02,36,19.00
2013,07,01,02,37,19.10
2013,07,01,02,38,19.10
2013,07,01,02,39,19.20
2013,07,01,02,40,19.20
2013,07,01,02,41,19.30
2013,07,01,02,42,19.30
2013,07,01,02,43,19.30
2013,07,01,02,44,19.30
2013,07,01,02,45,19.30
2013,07,01,02,46,19.30
2013,07,01,02,47,19.40
2013,07,01,02,48,19.40
2013,07,01,02,49,19.40
2013,07,01,02,50,19.40
2013,07,01,02,51,19.40
2013,07,01,02,52,19.40
2013,07,01,02,53,19.40
2013,07,01,02,54,19.40
2013,07,01,02,55,19.40
2013,07,01,02,56,19.40
2013,07,01,02,57,19.40
2013,07,01,02,58,19.40
2013,07,01,02,59,19.40
2013,07,01,03,00,19.40
2013,07,01,03,01,19.40
2013,07,01,03,02,19.30
2013,07,01,03,03,19.20
2013,07,01,03,04,19.10
2013,07,01,03,05,19.10
2013,07,01,03,06,19.00
2013,07,01,03,07,18.90
2013,07,01,03,08,18.90
2013,07,01,03,09,18.90
2013,07,01,03,10,18.80
2013,07,01,03,11,18.80
2013,07,01,03,12,18.80
2013,07,01,03,13,18.80
2013,07,01,03,14,18.80
2013,07,01,03,15,18.80
2013,07,01,03,16,18.80
2013,07,01,03,17,18.80
2013,07,01,03,18,18.80
2013,07,01,03,19,18.80
2013,07,01,03,20,18.80
2013,07,01,03,21,18.80
2013,07,01,03,22,18.80
2013,07,01,03,23,18.70
2013,07,01,03,24,18.70
2013,07,01,03,25,18.70
2013,07,01,03,26,18.70
2013,07,01,03,27,18.70
2013,07,01,03,28,18.70
2013,07,01,03,29,18.70
2013,07,01,03,30,18.70
2013,07,01,03,31,18.70
2013,07,01,03,32,18.70
2013,07,01,03,33,18.70
2013,07,01,03,34,18.70
2013,07,01,03,35,18.70
2013,07,01,03,36,18.70
2013,07,01,03,37,18.60
2013,07,01,03,38,18.60
2013,07,01,03,39,18.60
2013,07,01,03,40,18.60
2013,07,01,03,41,18.60
2013,07,01,03,42,18.60
2013,07,01,03,43,18.60
2013,07,01,03,44,18.60
2013,07,01,03,45,18.50
2013,07,01,03,46,18.50
2013,07,01,03,47,18.50
2013,07,01,03,48,18.50
2013,07,01,03,49,18.50
2013,07,01,03,50,18.50
2013,07,01,03,51,18.40
2013,07,01,03,52,18.40
2013,07,01,03,53,18.40
2013,07,01,03,54,18.40
2013,07,01,03,55,18.40
2013,07,01,03,56,18.30
2013,07,01,03,57,18.30
2013,07,01,03,58,18.30
2013,07,01,03,59,18.30
2013,07,01,04,00,18.30
2013,07,01,04,01,18.30
2013,07,01,04,02,18.30
2013,07,01,04,03,18.30
2013,07,01,04,04,18.30
2013,07,01,04,05,18.30
2013,07,01,04,06,18.30
2013,07,01,04,07,18.30
2013,07,01,04,08,18.30
2013,07,01,04,09,18.30
2013,07,01,04,10,18.30
2013,07,01,04,11,18.30
2013,07,01,04,12,18.30
2013,07,01,04,13,18.30
2013,07,01,04,14,18.30
2013,07,01,04,15,18.20
2013,07,01,04,16,18.20
2013,07,01,04,17,18.20
2013,07,01,04,18,18.20
2013,07,01,04,19,18.20
2013,07,01,04,20,18.20
2013,07,01,04,21,18.20
2013,07,01,04,22,18.20
2013,07,01,04,23,18.20
2013,07,01,04,24,18.20
2013,07,01,04,25,18.20
2013,07,01,04,26,18.20
2013,07,01,04,27,18.20
2013,07,01,04,28,18.20
2013,07,01,04,29,18.20
2013,07,01,04,30,18.20
2013,07,01,04,31,18.10
2013,07,01,04,32,18.10
2013,07,01,04,33,18.10
2013,07,01,04,34,18.20
2013,07,01,04,35,18.20
2013,07,01,04,36,18.20
2013,07,01,04,37,18.20
2013,07,01,04,38,18.20
2013,07,01,04,39,18.20
2013,07,01,04,40,18.20
2013,07,01,04,41,18.20
2013,07,01,04,42,18.20
2013,07,01,04,43,18.10
2013,07,01,04,44,18.10
2013,07,01,04,45,18.10
2013,07,01,04,46,18.10
2013,07,01,04,47,18.10
2013,07,01,04,48,18.10
2013,07,01,04,49,18.10
2013,07,01,04,50,18.10
2013,07,01,04,51,18.10
2013,07,01,04,52,18.10
2013,07,01,04,53,18.10
2013,07,01,04,54,18.10
2013,07,01,04,55,18.10
2013,07,01,04,56,18.10
2013,07,01,04,57,18.00
2013,07,01,04,58,18.00
2013,07,01,04,59,17.90
2013,07,01,05,00,17.90
2013,07,01,05,01,17.90
2013,07,01,05,02,17.90
2013,07,01,05,03,17.80
2013,07,01,05,04,17.80
2013,07,01,05,05,17.80
2013,07,01,05,06,17.80
2013,07,01,05,07,17.70
2013,07,01,05,08,17.70
2013,07,01,05,09,17.70
2013,07,01,05,10,17.60
2013,07,01,05,11,17.50
2013,07,01,05,12,17.40
2013,07,01,05,13,17.40
2013,07,01,05,14,17.30
2013,07,01,05,15,17.30
2013,07,01,05,16,17.20
2013,07,01,05,17,17.20
2013,07,01,05,18,17.20
2013,07,01,05,19,17.20
2013,07,01,05,20,17.20
2013,07,01,05,21,17.20
2013,07,01,05,22,17.20
2013,07,01,05,23,17.20
2013,07,01,05,24,17.20
2013,07,01,05,25,17.20
2013,07,01,05,26,17.20
2013,07,01,05,27,17.20
2013,07,01,05,28,17.20
2013,07,01,05,29,17.20
2013,07,01,05,30,17.20
2013,07,01,05,31,17.20
2013,07,01,06,02,17.80
2013,07,01,06,03,17.90
2013,07,01,06,04,17.90
2013,07,01,06,05,18.00
2013,07,01,06,06,18.10
2013,07,01,06,07,18.10
2013,07,01,06,08,18.20
2013,07,01,06,09,18.30
2013,07,01,06,10,18.40
2013,07,01,06,11,18.40
2013,07,01,06,12,18.50
2013,07,01,06,13,18.60
2013,07,01,06,14,18.60
2013,07,01,06,15,18.70
2013,07,01,06,16,18.80
2013,07,01,06,17,18.80
2013,07,01,06,18,18.90
2013,07,01,06,19,18.90
2013,07,01,06,20,19.00
2013,07,01,06,21,19.10
2013,07,01,06,22,19.10
2013,07,01,06,23,19.20
2013,07,01,06,24,19.20
2013,07,01,06,25,19.20
2013,07,01,06,26,19.30
2013,07,01,06,27,19.30
2013,07,01,06,28,19.30
2013,07,01,06,29,19.20
2013,07,01,06,30,19.20
2013,07,01,06,31,19.20
2013,07,01,06,32,19.20
2013,07,01,06,33,19.20
2013,07,01,06,34,19.20
2013,07,01,06,35,19.30
2013,07,01,06,36,19.30
2013,07,01,06,37,19.20
2013,07,01,06,38,19.20
2013,07,01,06,39,19.20
2013,07,01,06,40,19.20
2013,07,01,06,41,19.20
2013,07,01,06,42,19.30
2013,07,01,06,43,19.30
2013,07,01,06,44,19.30
2013,07,01,06,45,19.30
2013,07,01,06,46,19.30
2013,07,01,06,47,19.40
2013,07,01,06,48,19.40
2013,07,01,06,49,19.40
2013,07,01,06,50,19.40
2013,07,01,06,51,19.40
2013,07,01,06,52,19.30
2013,07,01,06,53,19.30
2013,07,01,06,54,19.30
2013,07,01,06,55,19.30
2013,07,01,06,56,19.30
2013,07,01,06,57,19.40
2013,07,01,06,58,19.40
2013,07,01,06,59,19.50
2013,07,01,07,00,19.50
2013,07,01,07,01,19.50
2013,07,01,07,02,19.60
2013,07,01,07,03,19.60
2013,07,01,07,04,19.60
2013,07,01,07,05,19.60
2013,07,01,07,06,19.60
2013,07,01,07,07,19.70
2013,07,01,07,08,19.70
2013,07,01,07,09,19.70
2013,07,01,07,10,19.80
2013,07,01,07,11,19.80
2013,07,01,07,12,19.80
2013,07,01,07,13,19.90
2013,07,01,07,14,19.90
2013,07,01,07,15,20.00
2013,07,01,07,16,20.00
2013,07,01,07,17,20.10
2013,07,01,07,18,20.10
2013,07,01,07,19,20.10
2013,07,01,07,20,20.20
2013,07,01,07,21,20.20
2013,07,01,07,22,20.30
2013,07,01,07,23,20.30
2013,07,01,07,24,20.30
2013,07,01,07,25,20.30
2013,07,01,07,26,20.30
2013,07,01,07,27,20.30
2013,07,01,07,28,20.30
2013,07,01,07,29,20.30
2013,07,01,07,30,20.40
2013,07,01,07,31,20.40
2013,07,01,07,32,20.40
2013,07,01,07,33,20.40
2013,07,01,07,34,20.40
2013,07,01,07,35,20.40
2013,07,01,07,36,20.40
2013,07,01,07,37,20.50
2013,07,01,07,38,20.50
2013,07,01,07,39,20.60
2013,07,01,07,40,20.70
2013,07,01,07,41,20.70
2013,07,01,07,42,20.80
2013,07,01,07,43,20.80
2013,07,01,07,44,20.90
2013,07,01,07,45,20.90
2013,07,01,07,46,20.90
2013,07,01,07,47,20.90
2013,07,01,07,48,20.90
2013,07,01,07,49,20.90
2013,07,01,07,50,20.90
2013,07,01,07,51,20.90
2013,07,01,07,52,20.90
2013,07,01,07,53,20.90
2013,07,01,07,54,20.90
2013,07,01,07,55,20.90
2013,07,01,07,56,20.90
2013,07,01,07,57,20.80
2013,07,01,07,58,20.80
2013,07,01,07,59,20.80
2013,07,01,08,00,20.80
2013,07,01,08,01,20.70
2013,07,01,08,02,20.80
2013,07,01,08,03,20.80
2013,07,01,08,04,20.80
2013,07,01,08,05,20.80
2013,07,01,08,06,20.80
2013,07,01,08,07,20.80
2013,07,01,08,08,20.80
2013,07,01,08,09,20.90
2013,07,01,08,10,20.90
2013,07,01,08,11,21.00
2013,07,01,08,12,21.10
2013,07,01,08,13,21.10
2013,07,01,08,14,21.20
2013,07,01,08,15,21.20
2013,07,01,08,16,21.30
2013,07,01,08,17,21.40
2013,07,01,08,18,21.50
2013,07,01,08,19,21.60
2013,07,01,08,20,21.70
2013,07,01,08,21,21.80
2013,07,01,08,22,21.90
2013,07,01,08,23,21.90
2013,07,01,08,24,22.00
2013,07,01,08,25,22.10
2013,07,01,08,26,22.20
2013,07,01,08,27,22.30
2013,07,01,08,28,22.40
2013,07,01,08,29,22.50
2013,07,01,08,30,22.50
2013,07,01,08,31,22.60
2013,07,01,08,32,22.70
2013,07,01,08,33,22.80
2013,07,01,08,34,22.80
2013,07,01,08,35,22.90
2013,07,01,08,36,23.00
2013,07,01,08,37,23.10
2013,07,01,08,38,23.10
2013,07,01,08,39,23.20
2013,07,01,08,40,23.20
2013,07,01,08,41,23.20
2013,07,01,08,42,23.20
2013,07,01,08,43,23.20
2013,07,01,08,44,23.30
2013,07,01,08,45,23.30
2013,07,01,08,46,23.30
2013,07,01,08,47,23.40
2013,07,01,08,48,23.40
2013,07,01,08,49,23.50
2013,07,01,08,50,23.50
2013,07,01,08,51,23.50
2013,07,01,08,52,23.60
2013,07,01,08,53,23.60
2013,07,01,08,54,23.60
2013,07,01,08,55,23.50
2013,07,01,08,56,23.50
2013,07,01,08,57,23.60
2013,07,01,08,58,23.60
2013,07,01,08,59,23.60
2013,07,01,09,00,23.70
2013,07,01,09,01,23.70
2013,07,01,09,02,23.80
2013,07,01,09,03,23.90
2013,07,01,09,04,23.90
2013,07,01,09,05,23.90
2013,07,01,09,06,24.00
2013,07,01,09,07,24.00
2013,07,01,09,08,24.10
2013,07,01,09,09,24.10
2013,07,01,09,10,24.10
2013,07,01,09,11,24.20
2013,07,01,09,12,24.20
2013,07,01,09,13,24.10
2013,07,01,09,14,24.00
2013,07,01,09,15,24.00
2013,07,01,09,16,23.90
2013,07,01,09,17,23.90
2013,07,01,09,18,23.80
2013,07,01,09,19,23.80
2013,07,01,09,20,23.80
2013,07,01,09,21,23.80
2013,07,01,09,22,23.80
2013,07,01,09,23,23.80
2013,07,01,09,24,23.80
2013,07,01,09,25,23.90
2013,07,01,09,26,23.80
2013,07,01,09,27,23.80
2013,07,01,09,28,23.80
2013,07,01,09,29,23.80
2013,07,01,09,30,23.80
2013,07,01,09,31,23.80
2013,07,01,09,32,23.80
2013,07,01,09,33,23.70
2013,07,01,09,34,23.70
2013,07,01,09,35,23.70
2013,07,01,09,36,23.70
2013,07,01,09,37,23.70
2013,07,01,09,38,23.70
2013,07,01,09,39,23.80
2013,07,01,09,40,23.80
2013,07,01,09,41,23.90
2013,07,01,09,42,23.90
2013,07,01,09,43,24.00
2013,07,01,09,44,24.00
2013,07,01,09,45,23.90
2013,07,01,09,46,24.00
2013,07,01,09,47,24.00
2013,07,01,09,48,24.00
2013,07,01,09,49,23.90
2013,07,01,09,50,23.90
2013,07,01,09,51,23.90
2013,07,01,09,52,23.80
2013,07,01,09,53,23.80
2013,07,01,09,54,23.80
2013,07,01,09,55,23.80
2013,07,01,09,56,23.80
2013,07,01,09,57,23.80
2013,07,01,09,58,23.80
2013,07,01,09,59,23.80
2013,07,01,10,00,23.80
2013,07,01,10,01,23.80
2013,07,01,10,02,23.70
2013,07,01,10,03,23.70
2013,07,01,10,04,23.70
2013,07,01,10,05,23.80
2013,07,01,10,06,23.80
2013,07,01,10,07,23.80
2013,07,01,10,08,23.80
2013,07,01,10,09,23.80
2013,07,01,10,10,23.90
2013,07,01,10,11,23.90
2013,07,01,10,12,23.90
2013,07,01,10,13,23.90
2013,07,01,10,14,23.90
2013,07,01,10,15,23.90
2013,07,01,10,16,23.80
2013,07,01,10,17,23.80
2013,07,01,10,18,23.70
2013,07,01,10,19,23.70
2013,07,01,10,20,23.70
2013,07,01,10,21,23.80
2013,07,01,10,22,23.90
2013,07,01,10,23,23.90
2013,07,01,10,24,23.90
2013,07,01,10,25,23.80
2013,07,01,10,26,23.80
2013,07,01,10,27,23.70
2013,07,01,10,28,23.60
2013,07,01,10,29,23.50
2013,07,01,10,30,23.40
2013,07,01,10,31,23.30
2013,07,01,10,32,23.30
2013,07,01,10,33,23.20
2013,07,01,10,34,23.20
2013,07,01,10,35,23.20
2013,07,01,10,36,23.20
2013,07,01,10,37,23.30
2013,07,01,10,38,23.30
2013,07,01,10,39,23.40
2013,07,01,10,40,23.50
2013,07,01,10,41,23.50
2013,07,01,10,42,23.60
2013,07,01,10,43,23.60
2013,07,01,10,44,23.70
2013,07,01,10,45,23.90
2013,07,01,10,46,23.90
2013,07,01,10,47,24.00
2013,07,01,10,48,24.10
2013,07,01,10,49,24.20
2013,07,01,10,50,24.20
2013,07,01,10,51,24.10
2013,07,01,10,52,24.10
2013,07,01,10,53,24.00
2013,07,01,10,54,23.90
2013,07,01,10,55,23.80
2013,07,01,10,56,23.80
2013,07,01,10,57,23.90
2013,07,01,10,58,23.90
2013,07,01,10,59,24.10
2013,07,01,11,00,24.20
2013,07,01,11,01,24.20
2013,07,01,11,02,24.20
2013,07,01,11,03,24.30
2013,07,01,11,04,24.30
2013,07,01,11,05,24.30
2013,07,01,11,06,24.50
2013,07,01,11,07,24.60
2013,07,01,11,08,24.60
2013,07,01,11,09,24.70
2013,07,01,11,10,24.70
2013,07,01,11,11,24.80
2013,07,01,11,12,24.80
2013,07,01,11,13,24.90
2013,07,01,11,14,24.90
2013,07,01,11,15,24.90
2013,07,01,11,16,25.00
2013,07,01,11,17,25.10
2013,07,01,11,18,25.10
2013,07,01,11,19,25.10
2013,07,01,11,20,25.10
2013,07,01,11,21,25.20
2013,07,01,11,22,25.20
2013,07,01,11,23,25.10
2013,07,01,11,24,25.00
2013,07,01,11,25,24.90
2013,07,01,11,26,24.80
2013,07,01,11,27,24.80
2013,07,01,11,28,24.80
2013,07,01,11,29,24.80
2013,07,01,11,30,24.70
2013,07,01,11,31,24.70
2013,07,01,11,32,24.70
2013,07,01,11,33,24.80
2013,07,01,11,34,24.80
2013,07,01,11,35,24.80
2013,07,01,11,36,24.80
2013,07,01,11,37,24.90
2013,07,01,11,38,24.90
2013,07,01,11,39,24.90
2013,07,01,11,40,25.00
2013,07,01,11,41,25.10
2013,07,01,11,42,25.10
2013,07,01,11,43,25.10
2013,07,01,11,44,25.00
2013,07,01,11,45,25.00
2013,07,01,11,46,24.90
2013,07,01,11,47,24.80
2013,07,01,11,48,24.80
2013,07,01,11,49,24.90
2013,07,01,11,50,24.90
2013,07,01,11,51,25.00
2013,07,01,11,52,25.00
2013,07,01,11,53,25.10
2013,07,01,11,54,25.20
2013,07,01,11,55,25.30
2013,07,01,11,56,25.40
2013,07,01,11,57,25.50
2013,07,01,11,58,25.50
2013,07,01,11,59,25.50
2013,07,01,12,00,25.60
2013,07,01,12,01,25.60
2013,07,01,12,02,25.70
2013,07,01,12,03,25.70
2013,07,01,12,04,25.70
2013,07,01,12,05,25.70
2013,07,01,12,06,25.70
2013,07,01,12,07,25.80
2013,07,01,12,08,25.90
2013,07,01,12,09,25.90
2013,07,01,12,10,25.80
2013,07,01,12,11,25.90
2013,07,01,12,12,25.90
2013,07,01,12,13,25.80
2013,07,01,12,14,25.90
2013,07,01,12,15,25.90
2013,07,01,12,16,25.90
2013,07,01,12,17,25.90
2013,07,01,12,18,25.90
2013,07,01,12,19,25.80
2013,07,01,12,20,25.80
2013,07,01,12,21,25.80
2013,07,01,12,22,25.90
2013,07,01,12,23,26.00
2013,07,01,12,24,26.10
2013,07,01,12,25,26.10
2013,07,01,12,26,26.20
2013,07,01,12,27,26.30
2013,07,01,12,28,26.30
2013,07,01,12,29,26.30
2013,07,01,12,30,26.40
2013,07,01,12,31,26.50
2013,07,01,12,32,26.60
2013,07,01,12,33,26.60
2013,07,01,12,34,26.70
2013,07,01,12,35,26.70
2013,07,01,12,36,26.80
2013,07,01,12,37,26.90
2013,07,01,12,38,26.90
2013,07,01,12,39,26.90
2013,07,01,12,40,26.90
2013,07,01,12,41,26.90
2013,07,01,12,42,26.90
2013,07,01,12,43,27.00
2013,07,01,12,44,27.00
2013,07,01,12,45,27.00
2013,07,01,12,46,26.90
2013,07,01,12,47,26.80
2013,07,01,12,48,26.70
2013,07,01,12,49,26.60
2013,07,01,12,50,26.50
2013,07,01,12,51,26.50
2013,07,01,12,52,26.50
2013,07,01,12,53,26.40
2013,07,01,12,54,26.40
2013,07,01,12,55,26.30
2013,07,01,12,56,26.30
2013,07,01,12,57,26.30
2013,07,01,12,58,26.30
2013,07,01,12,59,26.20
2013,07,01,13,00,26.20
2013,07,01,13,01,26.20
2013,07,01,13,02,26.30
2013,07,01,13,03,26.40
2013,07,01,13,04,26.60
2013,07,01,13,05,26.60
2013,07,01,13,06,26.70
2013,07,01,13,07,26.70
2013,07,01,13,08,26.70
2013,07,01,13,09,26.70
2013,07,01,13,10,26.70
2013,07,01,13,11,26.70
2013,07,01,13,12,26.80
2013,07,01,13,13,26.90
2013,07,01,13,14,26.90
2013,07,01,13,15,26.80
2013,07,01,13,16,26.80
2013,07,01,13,17,26.70
2013,07,01,13,18,26.60
2013,07,01,13,19,26.50
2013,07,01,13,20,26.50
2013,07,01,13,21,26.40
2013,07,01,13,22,26.40
2013,07,01,13,23,26.30
2013,07,01,13,24,26.30
2013,07,01,13,25,26.20
2013,07,01,13,26,26.20
2013,07,01,13,27,26.30
2013,07,01,13,28,26.40
2013,07,01,13,29,26.40
2013,07,01,13,30,26.50
2013,07,01,13,31,26.60
2013,07,01,13,32,26.60
2013,07,01,13,33,26.60
2013,07,01,13,34,26.60
2013,07,01,13,35,26.70
2013,07,01,13,36,26.70
2013,07,01,13,37,26.80
2013,07,01,13,38,26.80
2013,07,01,13,39,26.90
2013,07,01,13,40,27.00
2013,07,01,13,41,27.10
2013,07,01,13,42,27.20
2013,07,01,13,43,27.20
2013,07,01,13,44,27.30
2013,07,01,13,45,27.40
2013,07,01,13,46,27.50
2013,07,01,13,47,27.60
2013,07,01,13,48,27.60
2013,07,01,13,49,27.50
2013,07,01,13,50,27.40
2013,07,01,13,51,27.30
2013,07,01,13,52,27.20
2013,07,01,13,53,27.00
2013,07,01,13,54,26.90
2013,07,01,13,55,26.80
2013,07,01,13,56,26.70
2013,07,01,13,57,26.70
2013,07,01,13,58,26.70
2013,07,01,13,59,26.70
2013,07,01,14,00,26.60
2013,07,01,14,01,26.50
2013,07,01,14,02,26.40
2013,07,01,14,03,26.20
2013,07,01,14,04,26.10
2013,07,01,14,05,26.00
2013,07,01,14,06,26.00
2013,07,01,14,07,26.10
2013,07,01,14,08,26.10
2013,07,01,14,09,26.10
2013,07,01,14,10,26.00
2013,07,01,14,11,26.00
2013,07,01,14,12,25.90
2013,07,01,14,13,25.90
2013,07,01,14,14,25.90
2013,07,01,14,15,25.80
2013,07,01,14,16,25.80
2013,07,01,14,17,25.70
2013,07,01,14,18,25.70
2013,07,01,14,19,25.60
2013,07,01,14,20,25.50
2013,07,01,14,21,25.50
2013,07,01,14,22,25.40
2013,07,01,14,23,25.40
2013,07,01,14,24,25.40
2013,07,01,14,25,25.40
2013,07,01,14,26,25.40
2013,07,01,14,27,25.40
2013,07,01,14,28,25.50
2013,07,01,14,29,25.60
2013,07,01,14,30,25.60
2013,07,01,14,31,25.70
2013,07,01,14,32,25.70
2013,07,01,14,33,25.60
2013,07,01,14,34,25.60
2013,07,01,14,35,25.60
2013,07,01,14,36,25.60
2013,07,01,14,37,25.60
2013,07,01,14,38,25.60
2013,07,01,14,39,25.60
2013,07,01,14,40,25.80
2013,07,01,14,41,25.90
2013,07,01,14,42,26.00
2013,07,01,14,43,26.10
2013,07,01,14,44,26.10
2013,07,01,14,45,26.10
2013,07,01,14,46,26.10
2013,07,01,14,47,26.10
2013,07,01,14,48,26.10
2013,07,01,14,49,26.10
2013,07,01,14,50,26.10
2013,07,01,14,51,26.10
2013,07,01,14,52,26.20
2013,07,01,14,53,26.20
2013,07,01,14,54,26.10
2013,07,01,14,55,26.10
2013,07,01,14,56,26.30
2013,07,01,14,57,26.40
2013,07,01,14,58,26.60
2013,07,01,14,59,26.70
2013,07,01,15,00,26.80
2013,07,01,15,01,27.00
2013,07,01,15,02,27.10
2013,07,01,15,03,27.30
2013,07,01,15,04,27.30
2013,07,01,15,05,27.40
2013,07,01,15,06,27.30
2013,07,01,15,07,27.30
2013,07,01,15,08,27.30
2013,07,01,15,09,27.20
2013,07,01,15,10,27.20
2013,07,01,15,11,27.20
2013,07,01,15,12,27.20
2013,07,01,15,13,27.30
2013,07,01,15,14,27.30
2013,07,01,15,15,27.40
2013,07,01,15,16,27.40
2013,07,01,15,17,27.40
2013,07,01,15,18,27.40
2013,07,01,15,19,27.40
2013,07,01,15,20,27.40
2013,07,01,15,21,27.40
2013,07,01,15,22,27.40
2013,07,01,15,23,27.40
2013,07,01,15,24,27.40
2013,07,01,15,25,27.30
2013,07,01,15,26,27.30
2013,07,01,15,27,27.20
2013,07,01,15,28,27.20
2013,07,01,15,29,27.10
2013,07,01,15,30,27.00
2013,07,01,15,31,26.90
2013,07,01,15,32,26.90
2013,07,01,15,33,26.90
2013,07,01,15,34,26.90
2013,07,01,15,35,26.90
2013,07,01,15,36,26.90
2013,07,01,15,37,26.90
2013,07,01,15,38,26.90
2013,07,01,15,39,27.00
2013,07,01,15,40,27.10
2013,07,01,15,41,27.10
2013,07,01,15,42,27.20
2013,07,01,15,43,27.20
2013,07,01,15,44,27.20
2013,07,01,15,45,27.20
2013,07,01,15,46,27.30
2013,07,01,15,47,27.30
2013,07,01,15,48,27.40
2013,07,01,15,49,27.50
2013,07,01,15,50,27.50
2013,07,01,15,51,27.40
2013,07,01,15,52,27.40
2013,07,01,15,53,27.30
2013,07,01,15,54,27.30
2013,07,01,15,55,27.20
2013,07,01,15,56,27.20
2013,07,01,15,57,27.10
2013,07,01,15,58,27.00
2013,07,01,15,59,26.90
2013,07,01,16,00,26.90
2013,07,01,16,01,26.90
2013,07,01,16,02,26.90
2013,07,01,16,03,27.00
2013,07,01,16,04,27.10
2013,07,01,16,05,27.00
2013,07,01,16,06,27.00
2013,07,01,16,07,27.00
2013,07,01,16,08,27.00
2013,07,01,16,09,26.90
2013,07,01,16,10,26.90
2013,07,01,16,11,26.90
2013,07,01,16,12,26.90
2013,07,01,16,13,27.00
2013,07,01,16,14,27.00
2013,07,01,16,15,26.90
2013,07,01,16,16,26.80
2013,07,01,16,17,26.60
2013,07,01,16,18,26.40
2013,07,01,16,19,26.30
2013,07,01,16,20,26.20
2013,07,01,16,21,26.20
2013,07,01,16,22,26.20
2013,07,01,16,23,26.20
2013,07,01,16,24,26.30
2013,07,01,16,25,26.30
2013,07,01,16,26,26.30
2013,07,01,16,27,26.30
2013,07,01,16,28,26.20
2013,07,01,16,29,26.20
2013,07,01,16,30,26.20
2013,07,01,16,31,26.30
2013,07,01,16,32,26.40
2013,07,01,16,33,26.40
2013,07,01,16,34,26.40
2013,07,01,16,35,26.40
2013,07,01,16,36,26.40
2013,07,01,16,37,26.50
2013,07,01,16,38,26.50
2013,07,01,16,39,26.70
2013,07,01,16,40,26.70
2013,07,01,16,41,26.70
2013,07,01,16,42,26.60
2013,07,01,16,43,26.40
2013,07,01,16,44,26.20
2013,07,01,16,45,26.00
2013,07,01,16,46,25.70
2013,07,01,16,47,25.40
2013,07,01,16,48,25.00
2013,07,01,16,49,24.50
2013,07,01,16,50,24.10
2013,07,01,16,51,23.50
2013,07,01,16,52,23.00
2013,07,01,16,53,22.60
2013,07,01,16,54,22.30
2013,07,01,16,55,21.90
2013,07,01,16,56,21.70
2013,07,01,16,57,21.50
2013,07,01,16,58,21.40
2013,07,01,16,59,21.40
2013,07,01,17,00,21.40
2013,07,01,17,01,21.30
2013,07,01,17,02,21.30
2013,07,01,17,03,21.30
2013,07,01,17,04,21.20
2013,07,01,17,05,21.10
2013,07,01,17,06,21.00
2013,07,01,17,07,21.00
2013,07,01,17,08,21.10
2013,07,01,17,09,21.20
2013,07,01,17,10,21.30
2013,07,01,17,11,21.30
2013,07,01,17,12,21.20
2013,07,01,17,13,21.20
2013,07,01,17,14,21.20
2013,07,01,17,15,21.10
2013,07,01,17,16,21.10
2013,07,01,17,17,21.10
2013,07,01,17,18,21.10
2013,07,01,17,19,21.20
2013,07,01,17,20,21.30
2013,07,01,17,21,21.30
2013,07,01,17,22,21.40
2013,07,01,17,23,21.50
2013,07,01,17,24,21.60
2013,07,01,17,25,21.60
2013,07,01,17,26,21.70
2013,07,01,17,27,21.80
2013,07,01,17,28,21.80
2013,07,01,17,29,21.90
2013,07,01,17,30,22.00
2013,07,01,17,31,22.10
2013,07,01,17,32,22.20
2013,07,01,17,33,22.40
2013,07,01,17,34,22.50
2013,07,01,17,35,22.70
2013,07,01,17,36,22.80
2013,07,01,17,37,23.00
2013,07,01,17,38,23.10
2013,07,01,17,39,23.20
2013,07,01,17,40,23.20
2013,07,01,17,41,23.20
2013,07,01,17,42,23.30
2013,07,01,17,43,23.30
2013,07,01,17,44,23.40
2013,07,01,17,45,23.60
2013,07,01,17,46,23.80
2013,07,01,17,47,23.90
2013,07,01,17,48,24.10
2013,07,01,17,49,24.30